Location: Calvatone
(45.1167°N, 10.4333°E)
Time: 20:29:45
(UTC+00:00)

Cosmos 2263 Rocket - Pass Details

Date: 28 January 2023
Orbit: 825 x 847 km, 71.0° (Epoch: 21 March)

Event Time Altitude Azimuth Distance (km) Brightness Sun altitude
Rises 18:52:58 0° 323° (NW) 3,373 5.8 -27.0°
Reaches altitude 10° 18:55:46 10° 311° (NW) 2,433 5.2 -27.5°
Maximum altitude 19:00:14 25° 258° (WSW) 1,598 4.2 -28.3°
Drops below altitude 10° 19:04:41 10° 204° (SSW) 2,419 4.8 -29.1°
Sets 19:07:28 0° 191° (SSW) 3,348 5.4 -29.6°
